Time,TemperatureF,DewpointF,PressureIn,WindDirection,WindDirectionDegrees,WindSpeedMPH,WindSpeedGustMPH,Humidity,HourlyPrecipIn,Conditions,Clouds,dailyrainin,SoftwareType,DateUTC
2013-03-25 00:00:00,66.6,63.3,29.71,WNW,284,0.0,0.0,89,0.00,CLR,OVC,0.47,WeatherDisplay:10.37,2013-03-25 04:00:00,
2013-03-25 00:01:00,66.7,63.3,29.71,WNW,285,3.0,3.0,89,0.00,RA,OVC,0.00,WeatherDisplay:10.37,2013-03-25 04:01:00,
2013-03-25 00:02:00,66.6,63.3,29.71,WNW,284,2.0,2.3,89,0.00,RA,OVC,0.00,WeatherDisplay:10.37,2013-03-25 04:02:00,
2013-03-25 00:07:00,66.6,63.3,29.71,WNW,284,2.0,0.0,89,0.00,RA,OVC,0.00,WeatherDisplay:10.37,2013-03-25 04:07:00,
2013-03-25 00:12:00,66.4,63.1,29.70,WNW,284,0.0,0.0,89,0.00,RA,OVC,0.00,WeatherDisplay:10.37,2013-03-25 04:12:00,
2013-03-25 00:17:00,66.3,63.3,29.70,WSW,237,0.0,0.0,90,0.00,RA,OVC,0.00,WeatherDisplay:10.37,2013-03-25 04:17:00,
2013-03-25 00:22:00,66.1,63.1,29.70,WSW,237,0.0,0.0,90,0.00,RA,OVC,0.00,WeatherDisplay:10.37,2013-03-25 04:22:00,
2013-03-25 00:27:00,66.1,63.1,29.70,WSW,243,0.0,0.0,90,0.00,CLR,OVC,0.00,WeatherDisplay:10.37,2013-03-25 04:27:00,
2013-03-25 00:32:00,66.1,63.1,29.70,WSW,241,0.0,0.0,90,0.00,CLR,OVC,0.00,WeatherDisplay:10.37,2013-03-25 04:32:00,
2013-03-25 00:37:00,66.1,63.4,29.71,West,281,3.7,4.6,91,0.00,CLR,OVC,0.00,WeatherDisplay:10.37,2013-03-25 04:37:00,
2013-03-25 00:42:00,66.1,63.4,29.71,West,281,3.7,3.7,91,0.00,CLR,OVC,0.00,WeatherDisplay:10.37,2013-03-25 04:42:00,
2013-03-25 00:47:00,66.0,63.3,29.71,West,272,2.0,2.3,91,0.00,CLR,OVC,0.00,WeatherDisplay:10.37,2013-03-25 04:47:00,
2013-03-25 00:52:00,65.8,63.1,29.71,WNW,285,2.2,5.0,91,0.00,CLR,OVC,0.00,WeatherDisplay:10.37,2013-03-25 04:52:00,
2013-03-25 00:57:00,66.0,63.3,29.71,West,268,5.1,5.8,91,0.00,CLR,OVC,0.00,WeatherDisplay:10.37,2013-03-25 04:57:00,
2013-03-25 01:02:00,66.0,63.3,29.71,West,268,5.1,5.8,91,0.00,CLR,OVC,0.00,WeatherDisplay:10.37,2013-03-25 05:02:00,
2013-03-25 01:07:00,66.0,63.3,29.71,West,278,6.0,6.9,91,0.00,CLR,OVC,0.00,WeatherDisplay:10.37,2013-03-25 05:07:00,
2013-03-25 01:20:00,66.0,63.3,29.71,West,278,4.2,4.2,91,0.00,CLR,OVC,0.00,WeatherDisplay:10.37,2013-03-25 05:20:00,
2013-03-25 01:25:00,66.0,63.3,29.71,West,278,4.2,4.2,91,0.00,CLR,OVC,0.00,WeatherDisplay:10.37,2013-03-25 05:25:00,
2013-03-25 01:30:00,66.3,63.3,29.71,West,271,6.5,6.9,90,0.00,CLR,OVC,0.00,WeatherDisplay:10.37,2013-03-25 05:30:00,
2013-03-25 01:35:00,66.1,63.1,29.71,WNW,288,3.9,3.9,90,0.00,CLR,OVC,0.00,WeatherDisplay:10.37,2013-03-25 05:35:00,
2013-03-25 01:40:00,66.1,63.1,29.71,WNW,288,3.9,3.9,90,0.00,CLR,OVC,0.00,WeatherDisplay:10.37,2013-03-25 05:40:00,
2013-03-25 01:45:00,66.0,63.0,29.71,WNW,295,7.0,8.1,90,0.00,CLR,OVC,0.00,WeatherDisplay:10.37,2013-03-25 05:45:00,
2013-03-25 01:50:00,66.0,63.0,29.71,WNW,295,7.0,7.0,90,0.00,CLR,OVC,0.00,WeatherDisplay:10.37,2013-03-25 05:50:00,
2013-03-25 01:55:00,66.0,63.0,29.71,WNW,295,7.0,7.0,90,0.00,CLR,OVC,0.00,WeatherDisplay:10.37,2013-03-25 05:55:00,
2013-03-25 02:00:00,65.8,62.8,29.72,WNW,285,8.0,8.1,90,0.00,CLR,OVC,0.00,WeatherDisplay:10.37,2013-03-25 06:00:00,
2013-03-25 02:05:00,65.8,62.8,29.72,WNW,285,8.0,8.0,90,0.00,CLR,OVC,0.00,WeatherDisplay:10.37,2013-03-25 06:05:00,
2013-03-25 02:10:00,65.6,62.6,29.72,West,272,3.0,4.6,90,0.00,CLR,OVC,0.00,WeatherDisplay:10.37,2013-03-25 06:10:00,
2013-03-25 02:15:00,65.6,62.6,29.72,West,271,3.0,3.0,90,0.00,CLR,OVC,0.00,WeatherDisplay:10.37,2013-03-25 06:15:00,
2013-03-25 02:20:00,65.5,62.5,29.72,WNW,288,3.0,6.0,90,0.00,CLR,OVC,0.00,WeatherDisplay:10.37,2013-03-25 06:20:00,
2013-03-25 02:25:00,65.5,62.5,29.72,West,263,2.3,5.8,90,0.00,CLR,OVC,0.00,WeatherDisplay:10.37,2013-03-25 06:25:00,
2013-03-25 02:30:00,65.5,62.5,29.72,West,263,2.3,5.8,90,0.00,CLR,OVC,0.00,WeatherDisplay:10.37,2013-03-25 06:30:00,
2013-03-25 02:35:00,65.3,62.3,29.72,WNW,298,2.8,3.5,90,0.00,CLR,OVC,0.00,WeatherDisplay:10.37,2013-03-25 06:35:00,
2013-03-25 02:40:00,65.3,62.3,29.72,West,272,5.7,5.7,90,0.00,CLR,OVC,0.00,WeatherDisplay:10.37,2013-03-25 06:40:00,
2013-03-25 02:45:00,65.2,62.2,29.71,WNW,282,3.0,5.8,90,0.00,CLR,OVC,0.00,WeatherDisplay:10.37,2013-03-25 06:45:00,
2013-03-25 02:50:00,65.2,62.2,29.72,WNW,298,5.0,5.0,90,0.00,CLR,OVC,0.00,WeatherDisplay:10.37,2013-03-25 06:50:00,
2013-03-25 02:55:00,65.0,62.0,29.72,WNW,284,3.0,7.0,90,0.00,CLR,OVC,0.00,WeatherDisplay:10.37,2013-03-25 06:55:00,
2013-03-25 03:00:00,65.2,62.2,29.72,WNW,298,5.0,5.0,90,0.00,CLR,OVC,0.00,WeatherDisplay:10.37,2013-03-25 07:00:00,
2013-03-25 03:05:00,65.0,62.0,29.72,West,270,3.0,5.8,90,0.00,CLR,OVC,0.00,WeatherDisplay:10.37,2013-03-25 07:05:00,
2013-03-25 03:10:00,64.8,61.8,29.72,West,278,5.1,5.1,90,0.00,CLR,OVC,0.00,WeatherDisplay:10.37,2013-03-25 07:10:00,
2013-03-25 03:15:00,64.8,61.8,29.72,WNW,294,3.0,3.5,90,0.00,CLR,OVC,0.00,WeatherDisplay:10.37,2013-03-25 07:15:00,
2013-03-25 03:20:00,64.8,61.8,29.72,WNW,294,3.0,3.5,90,0.00,CLR,OVC,0.00,WeatherDisplay:10.37,2013-03-25 07:20:00,
2013-03-25 03:25:00,65.0,61.7,29.72,West,268,6.1,8.1,89,0.00,CLR,OVC,0.00,WeatherDisplay:10.37,2013-03-25 07:25:00,
2013-03-25 03:30:00,65.0,61.7,29.72,West,268,6.1,8.1,89,0.00,CLR,OVC,0.00,WeatherDisplay:10.37,2013-03-25 07:30:00,
2013-03-25 03:36:00,64.8,61.8,29.72,West,278,5.1,5.1,90,0.00,CLR,OVC,0.00,WeatherDisplay:10.37,2013-03-25 07:36:00,
2013-03-25 03:41:00,65.2,61.6,29.72,WNW,302,7.5,10.4,88,0.00,CLR,OVC,0.00,WeatherDisplay:10.37,2013-03-25 07:41:00,
2013-03-25 03:46:00,65.0,61.4,29.72,West,261,6.1,9.2,88,0.00,CLR,OVC,0.00,WeatherDisplay:10.37,2013-03-25 07:46:00,
2013-03-25 03:51:00,64.8,61.8,29.72,West,278,5.1,5.1,90,0.00,CLR,OVC,0.00,WeatherDisplay:10.37,2013-03-25 07:51:00,
2013-03-25 03:56:00,64.8,60.5,29.72,WNW,294,8.5,11.5,86,0.00,CLR,OVC,0.00,WeatherDisplay:10.37,2013-03-25 07:56:00,
2013-03-25 04:01:00,64.8,61.8,29.72,West,278,5.1,5.1,90,0.00,CLR,OVC,0.00,WeatherDisplay:10.37,2013-03-25 08:01:00,
2013-03-25 04:06:00,64.7,60.1,29.72,WNW,301,11.0,11.5,85,0.00,CLR,OVC,0.00,WeatherDisplay:10.37,2013-03-25 08:06:00,
2013-03-25 04:11:00,64.7,60.1,29.72,WNW,294,10.0,12.7,85,0.00,CLR,OVC,0.00,WeatherDisplay:10.37,2013-03-25 08:11:00,
2013-03-25 04:17:00,64.8,61.8,29.72,West,278,5.1,5.1,90,0.00,CLR,OVC,0.00,WeatherDisplay:10.37,2013-03-25 08:17:00,
2013-03-25 04:22:00,64.5,59.9,29.72,WNW,288,5.0,5.0,85,0.00,CLR,OVC,0.00,WeatherDisplay:10.37,2013-03-25 08:22:00,
2013-03-25 04:27:00,64.7,60.1,29.72,West,280,9.6,12.7,85,0.00,CLR,OVC,0.00,WeatherDisplay:10.37,2013-03-25 08:27:00,
2013-03-25 04:32:00,64.7,60.1,29.72,West,280,9.6,12.7,85,0.00,CLR,OVC,0.00,WeatherDisplay:10.37,2013-03-25 08:32:00,
2013-03-25 04:37:00,64.3,60.0,29.73,West,281,11.7,11.7,86,0.00,CLR,OVC,0.00,WeatherDisplay:10.37,2013-03-25 08:37:00,
2013-03-25 04:42:00,64.3,60.0,29.73,West,281,11.7,11.7,86,0.00,CLR,OVC,0.00,WeatherDisplay:10.37,2013-03-25 08:42:00,
2013-03-25 04:47:00,64.3,59.7,29.73,WNW,282,6.3,8.1,85,0.00,CLR,OVC,0.00,WeatherDisplay:10.37,2013-03-25 08:47:00,
2013-03-25 04:52:00,64.3,60.0,29.73,West,281,11.7,11.7,86,0.00,CLR,OVC,0.00,WeatherDisplay:10.37,2013-03-25 08:52:00,
2013-03-25 04:57:00,64.3,59.7,29.73,WNW,284,2.0,9.2,85,0.00,CLR,OVC,0.00,WeatherDisplay:10.37,2013-03-25 08:57:00,
2013-03-25 05:02:00,64.2,59.6,29.73,NW,309,6.2,7.0,85,0.00,CLR,OVC,0.00,WeatherDisplay:10.37,2013-03-25 09:02:00,
2013-03-25 05:08:00,64.3,60.0,29.73,West,281,11.7,11.7,86,0.00,CLR,OVC,0.00,WeatherDisplay:10.37,2013-03-25 09:08:00,
2013-03-25 05:13:00,64.0,59.4,29.74,WNW,288,6.0,9.2,85,0.00,CLR,OVC,0.00,WeatherDisplay:10.37,2013-03-25 09:13:00,
2013-03-25 05:18:00,64.3,60.0,29.73,West,281,11.7,11.7,86,0.00,CLR,OVC,0.00,WeatherDisplay:10.37,2013-03-25 09:18:00,
2013-03-25 05:23:00,63.9,59.3,29.74,WNW,285,8.0,8.0,85,0.00,CLR,OVC,0.00,WeatherDisplay:10.37,2013-03-25 09:23:00,
2013-03-25 05:28:00,63.5,59.2,29.74,WNW,287,7.0,8.1,86,0.00,CLR,OVC,0.00,WeatherDisplay:10.37,2013-03-25 09:28:00,
2013-03-25 05:33:00,63.4,59.1,29.74,West,277,6.2,6.9,86,0.00,CLR,OVC,0.00,WeatherDisplay:10.37,2013-03-25 09:33:00,
2013-03-25 05:38:00,63.4,59.1,29.74,West,265,7.0,7.0,86,0.00,CLR,OVC,0.00,WeatherDisplay:10.37,2013-03-25 09:38:00,
2013-03-25 05:43:00,63.2,59.3,29.74,WNW,292,8.0,8.0,87,0.00,CLR,OVC,0.00,WeatherDisplay:10.37,2013-03-25 09:43:00,
2013-03-25 05:48:00,62.9,59.0,29.74,West,281,6.0,6.0,87,0.00,CLR,OVC,0.00,WeatherDisplay:10.37,2013-03-25 09:48:00,
2013-03-25 05:53:00,63.2,59.3,29.74,WNW,292,8.0,8.0,87,0.00,CLR,OVC,0.00,WeatherDisplay:10.37,2013-03-25 09:53:00,
2013-03-25 05:58:00,63.2,59.3,29.74,WNW,292,8.0,8.0,87,0.00,CLR,OVC,0.00,WeatherDisplay:10.37,2013-03-25 09:58:00,
2013-03-25 06:03:00,62.4,58.5,29.75,WNW,298,6.0,6.0,87,0.00,CLR,OVC,0.00,WeatherDisplay:10.37,2013-03-25 10:03:00,
2013-03-25 06:08:00,62.4,58.5,29.75,WNW,298,6.0,6.0,87,0.00,CLR,OVC,0.00,WeatherDisplay:10.37,2013-03-25 10:08:00,
2013-03-25 06:13:00,62.1,58.5,29.75,West,274,6.5,6.9,88,0.00,CLR,OVC,0.00,WeatherDisplay:10.37,2013-03-25 10:13:00,
2013-03-25 06:18:00,62.1,58.5,29.75,West,274,6.5,6.5,88,0.00,CLR,OVC,0.00,WeatherDisplay:10.37,2013-03-25 10:18:00,
2013-03-25 06:23:00,61.6,56.7,29.75,West,268,7.8,7.8,84,0.00,CLR,OVC,0.00,WeatherDisplay:10.37,2013-03-25 10:23:00,
2013-03-25 06:28:00,61.6,56.7,29.75,West,268,7.8,7.8,84,0.00,CLR,OVC,0.00,WeatherDisplay:10.37,2013-03-25 10:28:00,
2013-03-25 06:33:00,61.6,56.7,29.75,West,268,7.8,7.8,84,0.00,CLR,OVC,0.00,WeatherDisplay:10.37,2013-03-25 10:33:00,
2013-03-25 06:38:00,60.7,53.1,29.76,West,278,6.6,6.9,76,0.00,CLR,OVC,0.00,WeatherDisplay:10.37,2013-03-25 10:38:00,
2013-03-25 06:43:00,60.5,53.3,29.76,WNW,287,8.7,8.7,77,0.00,CLR,OVC,0.00,WeatherDisplay:10.37,2013-03-25 10:43:00,
2013-03-25 06:48:00,60.2,53.3,29.77,WNW,285,10.3,11.5,78,0.00,CLR,OVC,0.00,WeatherDisplay:10.37,2013-03-25 10:48:00,
2013-03-25 06:53:00,60.2,53.3,29.77,NW,304,7.1,7.1,78,0.00,CLR,OVC,0.00,WeatherDisplay:10.37,2013-03-25 10:53:00,
2013-03-25 06:58:00,60.2,53.3,29.77,NW,304,7.1,7.1,78,0.00,CLR,OVC,0.00,WeatherDisplay:10.37,2013-03-25 10:58:00,
2013-03-25 07:03:00,59.9,52.7,29.77,WNW,301,6.0,9.2,77,0.00,CLR,OVC,0.00,WeatherDisplay:10.37,2013-03-25 11:03:00,
2013-03-25 07:08:00,59.6,51.3,29.78,West,280,6.0,10.4,74,0.00,CLR,OVC,0.00,WeatherDisplay:10.37,2013-03-25 11:08:00,
2013-03-25 07:13:00,59.5,50.8,29.78,WNW,288,7.3,11.5,73,0.00,CLR,OVC,0.00,WeatherDisplay:10.37,2013-03-25 11:13:00,
2013-03-25 07:18:00,59.3,50.6,29.79,WNW,294,8.0,8.1,73,0.00,CLR,OVC,0.00,WeatherDisplay:10.37,2013-03-25 11:18:00,
2013-03-25 07:23:00,59.3,50.6,29.79,WNW,294,7.7,7.7,73,0.00,CLR,OVC,0.00,WeatherDisplay:10.37,2013-03-25 11:23:00,
2013-03-25 07:28:00,59.3,50.6,29.79,WNW,294,7.7,7.7,73,0.00,CLR,OVC,0.00,WeatherDisplay:10.37,2013-03-25 11:28:00,
2013-03-25 07:33:00,58.6,50.0,29.80,NNW,333,6.0,6.9,73,0.00,CLR,OVC,0.00,WeatherDisplay:10.37,2013-03-25 11:33:00,
2013-03-25 07:38:00,58.6,50.0,29.80,NNW,333,6.0,6.9,73,0.00,CLR,OVC,0.00,WeatherDisplay:10.37,2013-03-25 11:38:00,
2013-03-25 07:44:00,58.1,50.2,29.80,WNW,289,2.2,2.3,75,0.00,CLR,OVC,0.00,WeatherDisplay:10.37,2013-03-25 11:44:00,
2013-03-25 07:49:00,57.8,49.9,29.81,NW,306,2.0,2.0,75,0.00,CLR,OVC,0.00,WeatherDisplay:10.37,2013-03-25 11:49:00,
2013-03-25 07:54:00,57.5,47.8,29.81,NW,322,6.0,6.0,70,0.00,CLR,OVC,0.00,WeatherDisplay:10.37,2013-03-25 11:54:00,
2013-03-25 07:59:00,56.9,45.7,29.82,NW,304,5.3,5.3,66,0.00,CLR,OVC,0.00,WeatherDisplay:10.37,2013-03-25 11:59:00,
2013-03-25 08:04:00,56.7,45.9,29.82,WNW,292,5.2,5.8,67,0.00,CLR,OVC,0.00,WeatherDisplay:10.37,2013-03-25 12:04:00,
2013-03-25 08:09:00,56.5,43.2,29.82,West,277,4.8,4.8,61,0.00,CLR,OVC,0.00,WeatherDisplay:10.37,2013-03-25 12:09:00,
2013-03-25 08:14:00,56.2,42.5,29.82,North,349,4.1,6.9,60,0.00,CLR,OVC,0.00,WeatherDisplay:10.37,2013-03-25 12:14:00,
2013-03-25 08:19:00,56.2,42.5,29.82,WNW,296,4.1,4.6,60,0.00,CLR,OVC,0.00,WeatherDisplay:10.37,2013-03-25 12:19:00,
2013-03-25 08:24:00,55.9,41.3,29.83,WNW,285,5.0,6.0,58,0.00,CLR,OVC,0.00,WeatherDisplay:10.37,2013-03-25 12:24:00,
2013-03-25 08:29:00,55.9,41.3,29.82,WNW,292,10.0,10.0,58,0.00,CLR,OVC,0.00,WeatherDisplay:10.37,2013-03-25 12:29:00,
2013-03-25 08:34:00,55.9,40.9,29.84,WNW,289,6.0,6.0,57,0.00,CLR,OVC,0.00,WeatherDisplay:10.37,2013-03-25 12:34:00,
2013-03-25 08:39:00,56.0,40.1,29.85,WNW,302,8.9,12.7,55,0.00,CLR,OVC,0.00,WeatherDisplay:10.37,2013-03-25 12:39:00,
2013-03-25 08:44:00,56.0,40.1,29.85,WNW,291,5.6,9.2,55,0.00,CLR,OVC,0.00,WeatherDisplay:10.37,2013-03-25 12:44:00,
2013-03-25 08:49:00,56.0,40.1,29.85,WNW,291,5.6,9.2,55,0.00,CLR,OVC,0.00,WeatherDisplay:10.37,2013-03-25 12:49:00,
2013-03-25 08:54:00,56.2,40.2,29.85,West,277,14.0,14.0,55,0.00,CLR,OVC,0.00,WeatherDisplay:10.37,2013-03-25 12:54:00,
2013-03-25 08:59:00,56.0,40.1,29.85,WNW,291,5.6,9.2,55,0.00,CLR,OVC,0.00,WeatherDisplay:10.37,2013-03-25 12:59:00,
2013-03-25 09:04:00,56.5,39.1,29.86,WNW,285,7.0,12.7,52,0.00,CLR,OVC,0.00,WeatherDisplay:10.37,2013-03-25 13:04:00,
2013-03-25 09:09:00,56.6,39.7,29.86,NW,305,13.0,13.0,53,0.00,CLR,OVC,0.00,WeatherDisplay:10.37,2013-03-25 13:09:00,
2013-03-25 09:14:00,56.7,37.7,29.86,West,277,9.1,9.1,49,0.00,CLR,OVC,0.00,WeatherDisplay:10.37,2013-03-25 13:14:00,
2013-03-25 09:19:00,56.9,38.4,29.87,WNW,291,7.0,10.4,50,0.00,CLR,OVC,0.00,WeatherDisplay:10.37,2013-03-25 13:19:00,
2013-03-25 09:24:00,57.0,36.4,29.87,WNW,288,9.6,12.7,46,0.00,CLR,OVC,0.00,WeatherDisplay:10.37,2013-03-25 13:24:00,
2013-03-25 09:29:00,57.0,36.4,29.87,WNW,288,9.6,12.7,46,0.00,CLR,OVC,0.00,WeatherDisplay:10.37,2013-03-25 13:29:00,
2013-03-25 09:34:00,57.3,36.7,29.88,West,281,7.5,13.0,46,0.00,CLR,OVC,0.00,WeatherDisplay:10.37,2013-03-25 13:34:00,
2013-03-25 09:39:00,57.6,39.1,29.88,West,277,5.9,9.2,50,0.00,CLR,OVC,0.00,WeatherDisplay:10.37,2013-03-25 13:39:00,
2013-03-25 09:44:00,57.8,38.8,29.88,West,281,7.0,11.5,49,0.00,CLR,OVC,0.00,WeatherDisplay:10.37,2013-03-25 13:44:00,
2013-03-25 09:49:00,57.6,38.6,29.88,West,280,10.0,10.0,49,0.00,CLR,OVC,0.00,WeatherDisplay:10.37,2013-03-25 13:49:00,
2013-03-25 09:54:00,58.1,40.6,29.88,NW,306,8.1,13.8,52,0.00,CLR,OVC,0.00,WeatherDisplay:10.37,2013-03-25 13:54:00,
2013-03-25 09:59:00,57.6,38.6,29.88,West,280,10.0,10.0,49,0.00,CLR,OVC,0.00,WeatherDisplay:10.37,2013-03-25 13:59:00,
2013-03-25 10:04:00,57.6,38.6,29.88,West,280,10.0,10.0,49,0.00,CLR,OVC,0.00,WeatherDisplay:10.37,2013-03-25 14:04:00,
2013-03-25 10:09:00,57.6,38.6,29.88,West,280,10.0,10.0,49,0.00,CLR,OVC,0.00,WeatherDisplay:10.37,2013-03-25 14:09:00,
2013-03-25 10:14:00,57.6,38.6,29.88,West,280,10.0,10.0,49,0.00,CLR,OVC,0.00,WeatherDisplay:10.37,2013-03-25 14:14:00,
2013-03-25 10:19:00,58.4,40.8,29.88,WSW,244,9.0,11.5,52,0.00,CLR,OVC,0.00,WeatherDisplay:10.37,2013-03-25 14:19:00,
2013-03-25 10:24:00,58.3,41.2,29.88,WSW,256,13.0,13.0,53,0.00,CLR,OVC,0.00,WeatherDisplay:10.37,2013-03-25 14:24:00,
2013-03-25 10:29:00,59.2,41.6,29.90,WNW,294,9.0,11.5,52,0.00,CLR,OVC,0.00,WeatherDisplay:10.37,2013-03-25 14:29:00,
2013-03-25 10:34:00,58.9,40.8,29.89,WNW,284,12.0,12.0,51,0.00,CLR,OVC,0.00,WeatherDisplay:10.37,2013-03-25 14:34:00,
2013-03-25 10:39:00,58.9,40.8,29.89,WNW,284,12.0,12.0,51,0.00,CLR,OVC,0.00,WeatherDisplay:10.37,2013-03-25 14:39:00,
2013-03-25 10:44:00,58.9,40.8,29.89,WNW,284,12.0,12.0,51,0.00,CLR,OVC,0.00,WeatherDisplay:10.37,2013-03-25 14:44:00,
2013-03-25 10:49:00,60.2,41.0,29.90,West,281,7.0,12.0,49,0.00,CLR,OVC,0.00,WeatherDisplay:10.37,2013-03-25 14:49:00,
2013-03-25 10:54:00,60.5,39.6,29.90,West,280,12.0,12.0,46,0.00,CLR,OVC,0.00,WeatherDisplay:10.37,2013-03-25 14:54:00,
2013-03-25 10:59:00,60.5,39.6,29.90,West,280,12.0,12.0,46,0.00,CLR,OVC,0.00,WeatherDisplay:10.37,2013-03-25 14:59:00,
2013-03-25 11:04:00,60.5,39.6,29.90,West,280,12.0,12.0,46,0.00,CLR,OVC,0.00,WeatherDisplay:10.37,2013-03-25 15:04:00,
2013-03-25 11:09:00,60.5,39.6,29.90,West,280,12.0,12.0,46,0.00,CLR,OVC,0.00,WeatherDisplay:10.37,2013-03-25 15:09:00,
2013-03-25 11:15:00,60.5,39.6,29.90,West,280,12.0,12.0,46,0.00,CLR,OVC,0.00,WeatherDisplay:10.37,2013-03-25 15:15:00,
2013-03-25 11:20:00,60.5,39.6,29.90,West,280,12.0,12.0,46,0.00,CLR,OVC,0.00,WeatherDisplay:10.37,2013-03-25 15:20:00,
2013-03-25 11:25:00,61.8,37.2,29.91,WNW,298,8.0,8.0,40,0.00,CLR,OVC,0.00,WeatherDisplay:10.37,2013-03-25 15:25:00,
2013-03-25 11:30:00,61.6,38.3,29.91,West,274,12.0,12.0,42,0.00,CLR,OVC,0.00,WeatherDisplay:10.37,2013-03-25 15:30:00,
2013-03-25 11:35:00,61.8,37.2,29.91,WNW,298,8.0,8.0,40,0.00,CLR,OVC,0.00,WeatherDisplay:10.37,2013-03-25 15:35:00,
2013-03-25 11:40:00,62.4,37.7,29.91,WNW,289,7.0,11.5,40,0.00,CLR,OVC,0.00,WeatherDisplay:10.37,2013-03-25 15:40:00,
2013-03-25 11:45:00,62.6,33.8,29.91,WNW,291,10.3,15.0,34,0.00,CLR,OVC,0.00,WeatherDisplay:10.37,2013-03-25 15:45:00,
2013-03-25 11:50:00,62.4,32.9,29.91,NW,304,11.0,11.5,33,0.00,CLR,OVC,0.00,WeatherDisplay:10.37,2013-03-25 15:50:00,
2013-03-25 11:55:00,62.4,35.1,29.90,WNW,294,10.0,15.0,36,0.00,CLR,OVC,0.00,WeatherDisplay:10.37,2013-03-25 15:55:00,
2013-03-25 12:00:00,62.7,32.4,29.91,NW,325,7.0,9.2,32,0.00,CLR,OVC,0.00,WeatherDisplay:10.37,2013-03-25 16:00:00,
2013-03-25 12:05:00,63.2,34.3,29.91,NNW,337,7.7,7.7,34,0.00,CLR,OVC,0.00,WeatherDisplay:10.37,2013-03-25 16:05:00,
2013-03-25 12:10:00,63.2,34.3,29.91,NNW,337,7.7,7.7,34,0.00,CLR,OVC,0.00,WeatherDisplay:10.37,2013-03-25 16:10:00,
2013-03-25 12:15:00,63.2,34.3,29.91,NNW,337,7.7,7.7,34,0.00,CLR,OVC,0.00,WeatherDisplay:10.37,2013-03-25 16:15:00,
2013-03-25 12:20:00,64.2,31.3,29.91,NW,320,12.0,13.8,29,0.00,CLR,OVC,0.00,WeatherDisplay:10.37,2013-03-25 16:20:00,
2013-03-25 12:25:00,64.3,31.3,29.91,NW,308,7.0,9.2,29,0.00,CLR,OVC,0.00,WeatherDisplay:10.37,2013-03-25 16:25:00,
2013-03-25 12:30:00,64.5,35.5,29.91,West,274,9.0,10.4,34,0.00,CLR,OVC,0.00,WeatherDisplay:10.37,2013-03-25 16:30:00,
2013-03-25 12:35:00,64.5,35.5,29.91,West,274,9.0,10.4,34,0.00,CLR,OVC,0.00,WeatherDisplay:10.37,2013-03-25 16:35:00,
2013-03-25 12:40:00,64.7,35.7,29.91,WNW,282,10.7,10.7,34,0.00,CLR,OVC,0.00,WeatherDisplay:10.37,2013-03-25 16:40:00,
2013-03-25 12:45:00,64.7,30.8,29.90,WSW,257,7.7,9.2,28,0.00,CLR,OVC,0.00,WeatherDisplay:10.37,2013-03-25 16:45:00,
2013-03-25 12:50:00,65.3,32.2,29.90,WNW,288,7.0,10.0,29,0.00,CLR,OVC,0.00,WeatherDisplay:10.37,2013-03-25 16:50:00,
2013-03-25 12:55:00,64.7,30.8,29.90,WSW,257,7.7,9.2,28,0.00,CLR,OVC,0.00,WeatherDisplay:10.37,2013-03-25 16:55:00,
2013-03-25 13:00:00,66.0,35.3,29.90,West,281,9.0,9.2,32,0.00,CLR,OVC,0.00,WeatherDisplay:10.37,2013-03-25 17:00:00,
2013-03-25 13:05:00,66.3,38.5,29.89,WNW,289,6.0,6.9,36,0.00,CLR,OVC,0.00,WeatherDisplay:10.37,2013-03-25 17:05:00,
2013-03-25 13:10:00,66.6,35.8,29.89,WNW,291,7.0,7.0,32,0.00,CLR,OVC,0.00,WeatherDisplay:10.37,2013-03-25 17:10:00,
2013-03-25 13:15:00,65.8,33.5,29.90,WNW,294,2.0,5.8,30,0.00,CLR,OVC,0.00,WeatherDisplay:10.37,2013-03-25 17:15:00,
2013-03-25 13:20:00,67.1,31.0,29.89,WNW,287,12.0,12.7,26,0.00,CLR,OVC,0.00,WeatherDisplay:10.37,2013-03-25 17:20:00,
2013-03-25 13:25:00,67.3,32.1,29.89,WNW,292,6.0,11.5,27,0.00,CLR,OVC,0.00,WeatherDisplay:10.37,2013-03-25 17:25:00,
2013-03-25 13:30:00,67.6,32.4,29.89,WNW,289,13.0,13.0,27,0.00,CLR,OVC,0.00,WeatherDisplay:10.37,2013-03-25 17:30:00,
2013-03-25 13:35:00,67.6,32.4,29.89,WNW,289,13.0,13.0,27,0.00,CLR,OVC,0.00,WeatherDisplay:10.37,2013-03-25 17:35:00,
2013-03-25 13:40:00,68.1,31.9,29.88,WNW,296,16.0,16.0,26,0.00,CLR,OVC,0.00,WeatherDisplay:10.37,2013-03-25 17:40:00,
2013-03-25 13:45:00,68.1,31.9,29.88,WNW,296,16.0,16.0,26,0.00,CLR,OVC,0.00,WeatherDisplay:10.37,2013-03-25 17:45:00,
2013-03-25 13:50:00,68.1,29.9,29.88,WNW,298,11.6,11.6,24,0.00,CLR,OVC,0.00,WeatherDisplay:10.37,2013-03-25 17:50:00,
2013-03-25 13:55:00,67.9,28.7,29.88,NW,305,15.0,15.0,23,0.00,CLR,OVC,0.00,WeatherDisplay:10.37,2013-03-25 17:55:00,
2013-03-25 14:00:00,68.3,31.1,29.88,WNW,294,11.2,13.8,25,0.00,CLR,OVC,0.00,WeatherDisplay:10.37,2013-03-25 18:00:00,
2013-03-25 14:05:00,68.4,34.9,29.88,WNW,296,6.0,11.5,29,0.00,CLR,OVC,0.00,WeatherDisplay:10.37,2013-03-25 18:05:00,
2013-03-25 14:10:00,68.3,31.1,29.88,WNW,287,11.0,14.0,25,0.00,CLR,OVC,0.00,WeatherDisplay:10.37,2013-03-25 18:10:00,
2013-03-25 14:15:00,68.8,32.5,29.87,WNW,291,10.0,12.7,26,0.00,CLR,OVC,0.00,WeatherDisplay:10.37,2013-03-25 18:15:00,
2013-03-25 14:20:00,68.8,31.5,29.87,West,277,18.0,18.4,25,0.00,CLR,OVC,0.00,WeatherDisplay:10.37,2013-03-25 18:20:00,
2013-03-25 14:25:00,68.6,34.2,29.87,WNW,301,11.0,11.0,28,0.00,CLR,OVC,0.00,WeatherDisplay:10.37,2013-03-25 18:25:00,
2013-03-25 14:30:00,68.4,32.1,29.87,WNW,284,14.0,14.0,26,0.00,CLR,OVC,0.00,WeatherDisplay:10.37,2013-03-25 18:30:00,
2013-03-25 14:35:00,68.4,32.1,29.87,WNW,284,14.0,14.0,26,0.00,CLR,OVC,0.00,WeatherDisplay:10.37,2013-03-25 18:35:00,
2013-03-25 14:40:00,68.9,32.6,29.86,NW,325,8.0,8.1,26,0.00,CLR,OVC,0.00,WeatherDisplay:10.37,2013-03-25 18:40:00,
2013-03-25 14:45:00,68.9,33.5,29.86,WNW,294,9.1,10.4,27,0.00,CLR,OVC,0.00,WeatherDisplay:10.37,2013-03-25 18:45:00,
2013-03-25 14:50:00,69.3,34.8,29.86,West,272,10.0,11.5,28,0.00,CLR,OVC,0.00,WeatherDisplay:10.37,2013-03-25 18:50:00,
2013-03-25 14:55:00,69.4,33.9,29.86,WNW,295,11.9,11.9,27,0.00,CLR,OVC,0.00,WeatherDisplay:10.37,2013-03-25 18:55:00,
2013-03-25 15:00:00,68.9,31.6,29.86,WNW,288,14.0,17.0,25,0.00,CLR,OVC,0.00,WeatherDisplay:10.37,2013-03-25 19:00:00,
2013-03-25 15:05:00,69.6,34.1,29.86,West,278,10.0,19.6,27,0.00,CLR,OVC,0.00,WeatherDisplay:10.37,2013-03-25 19:05:00,
2013-03-25 15:10:00,69.3,28.8,29.86,WNW,291,16.0,16.0,22,0.00,CLR,OVC,0.00,WeatherDisplay:10.37,2013-03-25 19:10:00,
2013-03-25 15:15:00,69.3,29.9,29.86,WNW,301,13.0,13.0,23,0.00,CLR,OVC,0.00,WeatherDisplay:10.37,2013-03-25 19:15:00,
2013-03-25 15:20:00,69.3,29.9,29.86,WNW,301,13.0,13.0,23,0.00,CLR,OVC,0.00,WeatherDisplay:10.37,2013-03-25 19:20:00,
2013-03-25 15:25:00,70.1,31.6,29.86,West,267,11.0,11.5,24,0.00,CLR,OVC,0.00,WeatherDisplay:10.37,2013-03-25 19:25:00,
2013-03-25 15:31:00,69.8,26.9,29.86,WNW,282,13.0,13.0,20,0.00,CLR,OVC,0.00,WeatherDisplay:10.37,2013-03-25 19:31:00,
2013-03-25 15:36:00,69.8,26.9,29.86,WNW,282,13.0,13.0,20,0.00,CLR,OVC,0.00,WeatherDisplay:10.37,2013-03-25 19:36:00,
2013-03-25 15:41:00,70.6,32.0,29.86,NNW,333,12.0,12.7,24,0.00,CLR,OVC,0.00,WeatherDisplay:10.37,2013-03-25 19:41:00,
2013-03-25 15:47:00,70.8,31.1,29.85,NNW,347,9.8,11.5,23,0.00,CLR,OVC,0.00,WeatherDisplay:10.37,2013-03-25 19:47:00,
2013-03-25 15:52:00,70.8,31.1,29.85,NNW,347,9.8,11.5,23,0.00,CLR,OVC,0.00,WeatherDisplay:10.37,2013-03-25 19:52:00,
2013-03-25 15:57:00,71.3,34.6,29.85,WNW,291,5.0,8.1,26,0.00,CLR,OVC,0.00,WeatherDisplay:10.37,2013-03-25 19:57:00,
2013-03-25 16:02:00,70.8,35.1,29.85,WSW,258,8.8,11.0,27,0.00,CLR,OVC,0.00,WeatherDisplay:10.37,2013-03-25 20:02:00,
2013-03-25 16:07:00,70.8,35.1,29.85,WSW,258,8.8,10.4,27,0.00,CLR,OVC,0.00,WeatherDisplay:10.37,2013-03-25 20:07:00,
2013-03-25 16:12:00,70.8,37.0,29.85,West,261,14.0,16.1,29,0.00,CLR,OVC,0.00,WeatherDisplay:10.37,2013-03-25 20:12:00,
2013-03-25 16:17:00,70.6,40.1,29.85,West,280,7.3,11.5,33,0.00,CLR,OVC,0.00,WeatherDisplay:10.37,2013-03-25 20:17:00,
2013-03-25 16:22:00,70.4,39.1,29.85,West,270,10.2,15.0,32,0.00,CLR,OVC,0.00,WeatherDisplay:10.37,2013-03-25 20:22:00,
2013-03-25 16:27:00,70.4,39.1,29.85,West,270,10.2,15.0,32,0.00,CLR,OVC,0.00,WeatherDisplay:10.37,2013-03-25 20:27:00,
2013-03-25 16:32:00,69.4,34.9,29.84,West,280,14.0,14.0,28,0.00,CLR,OVC,0.00,WeatherDisplay:10.37,2013-03-25 20:32:00,
2013-03-25 16:37:00,69.6,35.9,29.85,West,281,16.0,16.0,29,0.00,CLR,OVC,0.00,WeatherDisplay:10.37,2013-03-25 20:37:00,
2013-03-25 16:42:00,69.6,37.6,29.85,West,274,12.0,12.0,31,0.00,CLR,OVC,0.00,WeatherDisplay:10.37,2013-03-25 20:42:00,
2013-03-25 16:47:00,69.6,37.6,29.85,West,274,12.0,12.0,31,0.00,CLR,OVC,0.00,WeatherDisplay:10.37,2013-03-25 20:47:00,
2013-03-25 16:52:00,69.4,36.6,29.85,West,278,15.0,15.0,30,0.00,CLR,OVC,0.00,WeatherDisplay:10.37,2013-03-25 20:52:00,
2013-03-25 16:57:00,69.9,37.0,29.85,WNW,285,7.8,11.5,30,0.00,CLR,OVC,0.00,WeatherDisplay:10.37,2013-03-25 20:57:00,
2013-03-25 17:02:00,69.6,37.6,29.85,West,277,11.6,12.7,31,0.00,CLR,OVC,0.00,WeatherDisplay:10.37,2013-03-25 21:02:00,
2013-03-25 17:07:00,69.1,36.3,29.84,WNW,289,13.0,13.0,30,0.00,CLR,OVC,0.00,WeatherDisplay:10.37,2013-03-25 21:07:00,
2013-03-25 17:12:00,68.8,35.2,29.85,WNW,282,11.0,11.5,29,0.00,CLR,OVC,0.00,WeatherDisplay:10.37,2013-03-25 21:12:00,
2013-03-25 17:17:00,69.3,34.8,29.85,WNW,282,12.8,16.1,28,0.00,CLR,OVC,0.00,WeatherDisplay:10.37,2013-03-25 21:17:00,
2013-03-25 17:22:00,69.1,36.3,29.85,WNW,295,10.4,15.0,30,0.00,CLR,OVC,0.00,WeatherDisplay:10.37,2013-03-25 21:22:00,
2013-03-25 17:27:00,68.8,34.3,29.85,WNW,291,15.0,15.0,28,0.00,CLR,OVC,0.00,WeatherDisplay:10.37,2013-03-25 21:27:00,
2013-03-25 17:32:00,68.9,35.3,29.85,West,278,10.9,15.0,29,0.00,CLR,OVC,0.00,WeatherDisplay:10.37,2013-03-25 21:32:00,